TimeCDT,TemperatureF,Dew PointF,Humidity,Sea Level PressureIn,VisibilityMPH,Wind Direction,Wind SpeedMPH,Gust SpeedMPH,PrecipitationIn,Events,Conditions,WindDirDegrees,DateUTC
12:15 AM,66.2,62.6,88,29.74,10.0,SSW,11.5,-,N/A,,Mostly Cloudy,200,2012-10-25 05:15:00
12:35 AM,66.2,62.6,88,29.73,10.0,South,12.7,17.3,N/A,,Mostly Cloudy,190,2012-10-25 05:35:00
12:55 AM,66.2,62.6,88,29.73,10.0,SSW,12.7,19.6,N/A,,Mostly Cloudy,200,2012-10-25 05:55:00
1:15 AM,66.2,62.6,88,29.74,10.0,SSW,12.7,-,N/A,,Mostly Cloudy,200,2012-10-25 06:15:00
1:35 AM,68.0,62.6,83,29.74,10.0,SSW,11.5,16.1,N/A,,Mostly Cloudy,200,2012-10-25 06:35:00
1:55 AM,68.0,62.6,83,29.73,10.0,SSW,10.4,17.3,N/A,,Mostly Cloudy,200,2012-10-25 06:55:00
2:35 AM,64.4,60.8,88,29.71,8.0,South,10.4,-,N/A,,Overcast,170,2012-10-25 07:35:00
2:55 AM,62.6,60.8,94,29.71,7.0,South,9.2,-,N/A,,Overcast,170,2012-10-25 07:55:00
3:15 AM,62.6,60.8,94,29.70,7.0,SSE,9.2,-,N/A,,Mostly Cloudy,160,2012-10-25 08:15:00
3:35 AM,62.6,60.8,94,29.69,7.0,SSE,9.2,-,N/A,,Scattered Clouds,160,2012-10-25 08:35:00
3:55 AM,64.4,62.6,94,29.68,10.0,South,13.8,19.6,N/A,,Mostly Cloudy,190,2012-10-25 08:55:00
4:15 AM,64.4,62.6,94,29.67,10.0,South,12.7,19.6,N/A,,Mostly Cloudy,190,2012-10-25 09:15:00
4:35 AM,64.4,60.8,88,29.67,10.0,South,13.8,19.6,N/A,,Mostly Cloudy,190,2012-10-25 09:35:00
4:55 AM,64.4,60.8,88,29.67,10.0,SSW,16.1,21.9,N/A,,Mostly Cloudy,200,2012-10-25 09:55:00
5:15 AM,64.4,60.8,88,29.67,10.0,SSW,12.7,19.6,N/A,,Scattered Clouds,200,2012-10-25 10:15:00
5:35 AM,64.4,60.8,88,29.67,10.0,SSW,16.1,23.0,N/A,,Mostly Cloudy,210,2012-10-25 10:35:00
5:55 AM,64.4,60.8,88,29.65,10.0,SSW,17.3,24.2,N/A,,Mostly Cloudy,200,2012-10-25 10:55:00
6:55 AM,64.4,60.8,88,29.64,10.0,SSW,12.7,19.6,N/A,,Mostly Cloudy,200,2012-10-25 11:55:00
7:15 AM,64.4,60.8,88,29.63,10.0,SSW,13.8,20.7,N/A,,Partly Cloudy,200,2012-10-25 12:15:00
7:35 AM,64.4,60.8,88,29.63,10.0,SSW,13.8,21.9,N/A,,Clear,200,2012-10-25 12:35:00
7:55 AM,64.4,60.8,88,29.62,10.0,South,15.0,25.3,N/A,,Clear,190,2012-10-25 12:55:00
8:35 AM,64.4,60.8,88,29.62,10.0,SSW,18.4,25.3,N/A,,Clear,200,2012-10-25 13:35:00
8:55 AM,66.2,60.8,83,29.60,10.0,South,16.1,23.0,N/A,,Clear,190,2012-10-25 13:55:00
9:15 AM,66.2,60.8,83,29.60,10.0,SSW,20.7,27.6,N/A,,Clear,210,2012-10-25 14:15:00
9:55 AM,66.2,60.8,83,29.59,10.0,SSW,17.3,23.0,N/A,,Overcast,200,2012-10-25 14:55:00
10:35 AM,66.2,60.8,83,29.60,10.0,SSW,19.6,23.0,N/A,,Overcast,210,2012-10-25 15:35:00
10:55 AM,66.2,60.8,83,29.60,10.0,SSW,16.1,23.0,N/A,,Overcast,210,2012-10-25 15:55:00
11:15 AM,66.2,60.8,83,29.58,10.0,SSW,15.0,21.9,N/A,,Overcast,200,2012-10-25 16:15:00
11:35 AM,66.2,60.8,83,29.59,10.0,SSW,16.1,23.0,N/A,,Overcast,210,2012-10-25 16:35:00
11:55 AM,66.2,60.8,83,29.57,10.0,SSW,18.4,25.3,N/A,,Overcast,200,2012-10-25 16:55:00
12:15 PM,66.2,60.8,83,29.57,10.0,SSW,16.1,23.0,N/A,,Overcast,200,2012-10-25 17:15:00
12:35 PM,66.2,60.8,83,29.56,10.0,South,12.7,21.9,N/A,,Overcast,180,2012-10-25 17:35:00
12:55 PM,62.6,57.2,82,29.56,10.0,SSE,12.7,-,N/A,,Overcast,160,2012-10-25 17:55:00
1:35 PM,60.8,57.2,88,29.55,9.0,South,13.8,-,N/A,,Overcast,180,2012-10-25 18:35:00
1:55 PM,62.6,59.0,88,29.53,10.0,South,13.8,19.6,N/A,,Overcast,180,2012-10-25 18:55:00
2:15 PM,64.4,59.0,83,29.52,10.0,South,11.5,19.6,N/A,Thunderstorm,Overcast,180,2012-10-25 19:15:00
2:35 PM,62.6,60.8,94,29.52,3.0,South,12.7,28.8,0.16,Thunderstorm,Thunderstorm,180,2012-10-25 19:35:00
3:15 PM,60.8,60.8,100,29.51,7.0,South,11.5,17.3,0.06,,Overcast,170,2012-10-25 20:15:00
3:35 PM,60.8,60.8,100,29.51,6.0,South,13.8,-,0.08,,Overcast,170,2012-10-25 20:35:00
3:55 PM,62.6,60.8,94,29.50,5.0,South,13.8,-,0.08,,Overcast,170,2012-10-25 20:55:00
4:15 PM,60.8,60.8,100,29.50,6.0,South,13.8,-,N/A,,Overcast,190,2012-10-25 21:15:00
4:35 PM,62.6,60.8,94,29.51,7.0,West,11.5,18.4,0.02,Thunderstorm,Overcast,260,2012-10-25 21:35:00
4:55 PM,60.8,57.2,88,29.58,4.0,West,13.8,20.7,0.21,Thunderstorm,Thunderstorm,260,2012-10-25 21:55:00
5:15 PM,59.0,57.2,94,29.56,10.0,West,6.9,-,0.11,,Overcast,260,2012-10-25 22:15:00
5:35 PM,60.8,57.2,88,29.57,10.0,West,15.0,28.8,0.15,Thunderstorm,Mostly Cloudy,280,2012-10-25 22:35:00
5:55 PM,53.6,51.8,94,29.62,7.0,WNW,10.4,17.3,0.27,Thunderstorm,Overcast,290,2012-10-25 22:55:00
6:15 PM,51.8,48.2,88,29.59,10.0,NNW,12.7,21.9,0.08,,Overcast,330,2012-10-25 23:15:00
6:35 PM,50.0,48.2,94,29.65,10.0,WNW,9.2,-,0.09,Thunderstorm,Overcast,300,2012-10-25 23:35:00
6:55 PM,48.2,46.4,93,29.68,10.0,WNW,11.5,19.6,0.10,,Overcast,300,2012-10-25 23:55:00
7:15 PM,46.4,42.8,87,29.71,10.0,NW,12.7,19.6,0.06,,Overcast,320,2012-10-26 00:15:00
7:35 PM,44.6,42.8,93,29.73,10.0,NW,10.4,19.6,0.08,,Overcast,310,2012-10-26 00:35:00
7:55 PM,44.6,41.0,87,29.73,10.0,NW,9.2,19.6,0.08,,Mostly Cloudy,320,2012-10-26 00:55:00
8:15 PM,44.6,39.2,81,29.75,10.0,WNW,9.2,18.4,N/A,,Overcast,300,2012-10-26 01:15:00
8:35 PM,44.6,39.2,81,29.77,10.0,NW,9.2,18.4,N/A,,Overcast,310,2012-10-26 01:35:00
8:55 PM,42.8,39.2,87,29.79,10.0,NW,9.2,-,N/A,,Overcast,320,2012-10-26 01:55:00
9:15 PM,42.8,37.4,81,29.81,10.0,NW,5.8,18.4,N/A,,Overcast,310,2012-10-26 02:15:00
9:35 PM,42.8,37.4,81,29.82,10.0,NW,11.5,19.6,N/A,,Overcast,310,2012-10-26 02:35:00
9:55 PM,42.8,37.4,81,29.83,10.0,NW,11.5,21.9,N/A,,Overcast,310,2012-10-26 02:55:00
10:15 PM,42.8,35.6,76,29.85,10.0,NW,11.5,21.9,N/A,,Overcast,310,2012-10-26 03:15:00
10:35 PM,42.8,35.6,76,29.87,10.0,NW,10.4,16.1,N/A,,Overcast,320,2012-10-26 03:35:00
10:55 PM,42.8,37.4,81,29.89,10.0,NW,9.2,18.4,N/A,,Overcast,310,2012-10-26 03:55:00
11:15 PM,42.8,35.6,76,29.91,10.0,NW,8.1,17.3,N/A,,Overcast,310,2012-10-26 04:15:00
11:35 PM,39.2,35.6,87,29.94,7.0,WNW,10.4,24.2,N/A,,Overcast,300,2012-10-26 04:35:00
11:55 PM,39.2,35.6,87,29.96,10.0,NW,12.7,21.9,N/A,,Overcast,320,2012-10-26 04:55:00